{"data":{"norad_id":56193,"epoch":"2026-09-19T11:45:34.464672Z","epoch_age_seconds":101934,"freshness":"FRESH","line1":"1 56193U 23054R   26262.48998223  .00003278  00000+0  12187-3 0  9992","line2":"2 56193  97.2563 145.7047 0003793  81.5326 278.6343 15.28208695191429","mean_motion":15.28208695,"eccentricity":0.0003793,"inclination_deg":97.2563,"raan_deg":145.7047,"arg_perigee_deg":81.5326,"mean_anomaly_deg":278.6343,"bstar":0.00012187,"rev_number":19142,"period_min":94.227967993599,"perigee_km":478.56546837012,"apogee_km":483.76893653811,"semimajor_km":6859.3042024541,"source":"CELESTRAK","updated_at":"2026-09-20T09:00:47.452223Z"}}